Погода в Ходжейли

Узбекистан     42°24′33″N   59°27′29″E
темп.,
°C
ветер,
м/с
пор.,
м/с
влажн.,
%
обл.,
%
осадки,
мм/ч
давл.,
гПа
погр.,
м
3 марта, ср
ср323:00+3ююз025769 0.0 102724
02:00+2ююв226468 0.0 102734
05:00+2ю357182 0.0 102587
08:00+1ю457757 0.0 102496
11:00+6ю565538 0.0 1024848
14:00+9ю554444 0.0 10221282
17:00+10ююз454439 0.0 10201559
20:00+8юз356181 0.0 1019159
4 марта, чт
чт423:00+8ю126491 0.0 101942
02:00+7вюв3560100 0.0 1016222
05:00+5юв1262100 0.0 101623
08:00+5с5680100 0.4 1017384
11:00+5ссз6880100 0.9 1020665
14:00+9сз774543 0.0 10211334
17:00+9зсз8104542 0.0 10231748
20:00+5сз585452 0.0 1026601
5 марта, пт
пт523:00+3сз476025 0.0 1028233
02:000сз12660 0.0 102922
05:00−1вюв11720 0.0 102922
08:000юв34660 0.0 102949
11:00+6юв45450 0.0 1028659
14:00+10юв45380 0.0 10251474
17:00+12вюв453229 0.0 10221685
20:00+8в6104493 0.0 1021374
6 марта, сб
сб623:00+7всв6105097 0.0 1021375
02:00+5всв5956100 0.0 1020275
05:00+5св51055100 0.0 1018300
08:00+4ссв4859100 0.0 1020263
11:00+8св5644100 0.0 1021754
14:00+10с4534100 0.0 10201253
17:00+10с5532100 0.0 10201313
20:00+6св474667 0.0 1021205
7 марта, вс
вс723:00+4всв345733 0.0 102176
02:00+3вюв34590 0.0 102048
05:00+2ююв34590 0.0 101962
08:00+2ююв46550 0.0 101893
11:00+8ююв573633 0.0 1018477
14:00+12ююв5627100 0.0 10151232
17:00+12ю4626100 0.0 10141370
20:00+10ю3333100 0.0 101443